Hourly Weather Roundup
Issued by NWS

Current Version | Previous Version | Text Only | Print | Product List | Glossary On
Versions: 1 2 3 4 5 6 7 8 9 10 11 12 13 14 15 16 17 18 19 20 21 22 23 24 25 26 27 28 29 30 31 32 33 34 35 36 37 38 39 40 41 42 43 44 45 46 47 48 49 50
583
NZUS43 KILX 191510
HWRCRS

NWR Hourly Weather Roundup
National Weather Service Lincoln IL
900 AM CST FRI JAN 19 2018


CITY           SKY/WX    TMP DP  RH WIND       PRES   REMARKS
Champaign      FAIR      26  19  74 S17       30.03S WCI  13
Lawrenceville  FAIR      21  15  78 S12       30.17S WCI   9
Peoria         FAIR      30  19  63 S10       29.97R WCI  21
Springfield    FAIR      32  17  54 S13G21    30.02R WCI  22
$$


CITY           SKY/WX    TMP DP  RH WIND       PRES   REMARKS
Bloomington    FAIR      28  18  66 SW17      29.99R WCI  16
Danville       FAIR      26  16  65 S14       30.02S WCI  14
Decatur        FAIR      29  19  66 SW17      30.04R WCI  17
Effingham      FAIR      30  18  61 S12       30.12S WCI  20
Flora          FAIR      28  19  70 S12       30.15R WCI  17
Galesburg      FAIR      32  22  68 S18       29.91F WCI  20
Jacksonville   CLOUDY    34  15  46 S17       30.01R WCI  23
Lacon          FAIR      32  19  57 SW17      29.93F WCI  21
La Salle       FAIR      32  19  58 SW18G25   29.91F WCI  20
Lincoln        FAIR      30  20  66 S6        30.02R WCI  24
Litchfield     CLOUDY    29  19  66 S15       30.06S WCI  18

CITY           SKY/WX    TMP DP  RH WIND       PRES   REMARKS
Macomb         CLOUDY    34  20  57 SW17      29.96F WCI  23
Mattoon        FAIR      25  17  72 S13G20    30.06S WCI  14
Moline         FAIR      34  21  59 SW10      29.88R WCI  26
Olney          FAIR      25  14  63 S10       30.16S WCI  15
Paris          FAIR      27  18  70 S16       30.08F WCI  14
Pontiac        FAIR      30  20  65 SW13      29.98S WCI  20
Quincy         CLOUDY    34  18  52 S17       29.96S WCI  23
Rantoul        FAIR      29  20  69 SW13      30.03R WCI  19
Robinson       FAIR      24  16  69 S10       30.15F WCI  14
Taylorville    FAIR      30  19  63 S17       30.04S WCI  18
Terre Haute    FAIR      26  14  60 S13       30.12S WCI  15
$$


CITY           SKY/WX    TMP DP  RH WIND       PRES   REMARKS
Burlington     CLOUDY    32  20  61 S17       29.91S WCI  21
Chicago        PTSUNNY   31  19  61 SW16      29.89S WCI  20
Des Moines     CLOUDY    35  24  64 SW9       29.79S WCI  28
Evansville     FAIR      25  16  68 SW14      30.22R WCI  13
Indianapolis   FAIR      26  15  63 S12       30.10R WCI  16
Kansas City    CLOUDY    33  18  53 S17       29.92F WCI  22
Milwaukee      PTSUNNY   31  22  69 SW13      29.82F WCI  21
St Louis       CLOUDY    37  15  40 SW8       30.07S WCI  31
$$





USA.gov is the U.S. government's official web portal to all federal, state and local government web resources and services.